| time (UTC) | temp F | wind direction | speed knots | gust knots | rain 1hr in | rain 24hr in | rain mn in | humidity % | barometer mb |
| 20260506124144 | 61 | 292 | 7.0 | 7.0 | 0.00 | 0.04 | 0.00 | 68 | 1013.0 |
| 20260506123644 | 61 | 292 | 7.0 | 7.0 | 0.00 | 0.04 | 0.00 | 68 | 1013.0 |
| 20260506123144 | 62 | 292 | 7.0 | 7.0 | 0.00 | 0.04 | 0.00 | 68 | 1013.0 |
| 20260506122646 | 62 | 292 | 7.0 | 7.0 | 0.00 | 0.04 | 0.00 | 68 | 1013.0 |
| 20260506122146 | 61 | 292 | 7.0 | 7.0 | 0.00 | 0.04 | 0.00 | 68 | 1013.0 |
| 20260506121645 | 61 | 292 | 7.0 | 7.0 | 0.00 | 0.04 | 0.00 | 68 | 1013.0 |
| 20260506121145 | 62 | 292 | 7.0 | 7.0 | 0.00 | 0.04 | 0.00 | 68 | 1013.0 |
| 20260506120645 | 62 | 292 | 7.0 | 7.0 | 0.00 | 0.04 | 0.00 | 68 | 1013.0 |
| 20260506120145 | 62 | 248 | 5.2 | 8.7 | 0.00 | 0.04 | 0.00 | 69 | 1013.0 |
| 20260506115645 | 62 | 248 | 5.2 | 8.7 | 0.00 | 0.04 | 0.00 | 69 | 1013.0 |
| 20260506115145 | 62 | 248 | 5.2 | 8.7 | 0.00 | 0.04 | 0.00 | 69 | 1013.0 |
| 20260506114645 | 62 | 248 | 5.2 | 8.7 | 0.00 | 0.04 | 0.00 | 69 | 1013.0 |
| 20260506114145 | 61 | 248 | 5.2 | 8.7 | 0.00 | 0.04 | 0.00 | 69 | 1013.0 |
| 20260506113645 | 61 | 248 | 5.2 | 8.7 | 0.00 | 0.04 | 0.00 | 68 | 1013.0 |
| 20260506113144 | 61 | 248 | 5.2 | 8.7 | 0.00 | 0.04 | 0.00 | 68 | 1013.0 |
| 20260506112644 | 61 | 248 | 5.2 | 8.7 | 0.00 | 0.04 | 0.00 | 68 | 1013.0 |
| 20260506112144 | 61 | 248 | 5.2 | 8.7 | 0.00 | 0.04 | 0.00 | 68 | 1013.0 |
| 20260506111644 | 61 | 248 | 5.2 | 8.7 | 0.00 | 0.04 | 0.00 | 68 | 1013.0 |
| 20260506111144 | 62 | 248 | 5.2 | 8.7 | 0.00 | 0.04 | 0.00 | 69 | 1013.0 |
| 20260506110646 | 61 | 248 | 5.2 | 8.7 | 0.00 | 0.04 | 0.00 | 68 | 1013.0 |
| 20260506110146 | 62 | 248 | 5.2 | 8.7 | 0.00 | 0.04 | 0.00 | 68 | 1013.0 |
| 20260506105645 | 62 | 248 | 5.2 | 8.7 | 0.00 | 0.04 | 0.00 | 69 | 1013.0 |
| 20260506105145 | 62 | 248 | 5.2 | 10.4 | 0.00 | 0.04 | 0.00 | 69 | 1013.0 |
| 20260506104645 | 62 | 292 | 6.1 | 2.6 | 0.00 | 0.04 | 0.00 | 70 | 1013.0 |
| 20260506104144 | 62 | 248 | 4.3 | 6.1 | 0.00 | 0.04 | 0.00 | 70 | 1013.0 |
| 20260506103644 | 61 | 270 | 5.2 | 7.0 | 0.00 | 0.04 | 0.00 | 70 | 1013.0 |
| 20260506103144 | 61 | 248 | 6.1 | 1.7 | 0.00 | 0.04 | 0.00 | 69 | 1013.0 |
| 20260506102644 | 61 | 248 | 6.1 | 2.6 | 0.00 | 0.04 | 0.00 | 69 | 1013.0 |
| 20260506102144 | 61 | 248 | 4.3 | 4.3 | 0.00 | 0.04 | 0.00 | 69 | 1013.0 |
| 20260506101646 | 61 | 244 | 4.3 | 6.1 | 0.00 | 0.04 | 0.00 | 69 | 1013.0 |
| 20260506101145 | 61 | 205 | 7.0 | 5.2 | 0.00 | 0.04 | 0.00 | 70 | 1013.0 |
| 20260506100645 | 60 | 270 | 2.6 | 4.3 | 0.00 | 0.04 | 0.00 | 70 | 1013.0 |
| 20260506100145 | 60 | 270 | 2.6 | 4.3 | 0.00 | 0.04 | 0.00 | 70 | 1013.0 |
| 20260506095645 | 60 | 248 | 5.2 | 6.1 | 0.00 | 0.04 | 0.00 | 70 | 1013.0 |
| 20260506095145 | 60 | 248 | 5.2 | 6.1 | 0.00 | 0.04 | 0.00 | 70 | 1013.0 |
| 20260506094645 | 60 | 248 | 5.2 | 6.1 | 0.00 | 0.04 | 0.00 | 70 | 1013.0 |
| 20260506094145 | 60 | 270 | 4.3 | 4.3 | 0.00 | 0.04 | 0.00 | 70 | 1013.0 |
| 20260506093645 | 59 | 270 | 6.1 | 4.3 | 0.00 | 0.04 | 0.00 | 70 | 1013.0 |
| 20260506093145 | 59 | 254 | 4.3 | 5.2 | 0.00 | 0.04 | 0.00 | 70 | 1013.0 |
| 20260506092645 | 59 | 270 | 2.6 | 4.3 | 0.00 | 0.04 | 0.00 | 70 | 1013.0 |
| 20260506092145 | 59 | 248 | 4.3 | 2.6 | 0.00 | 0.04 | 0.00 | 70 | 1013.0 |
| 20260506091644 | 59 | 278 | 4.3 | 4.3 | 0.00 | 0.04 | 0.00 | 71 | 1013.0 |
| 20260506091144 | 58 | 262 | 4.3 | 5.2 | 0.00 | 0.04 | 0.00 | 71 | 1013.0 |
| 20260506090645 | 58 | 233 | 2.6 | 1.7 | 0.00 | 0.04 | 0.00 | 71 | 1013.0 |
| 20260506090145 | 58 | 292 | 4.3 | 4.3 | 0.00 | 0.04 | 0.00 | 71 | 1013.0 |
| 20260506085645 | 58 | 248 | 5.2 | 5.2 | 0.00 | 0.04 | 0.00 | 71 | 1013.0 |
| 20260506085145 | 57 | 292 | 5.2 | 4.3 | 0.00 | 0.04 | 0.00 | 71 | 1013.0 |
| 20260506084645 | 57 | 248 | 5.2 | 5.2 | 0.00 | 0.04 | 0.00 | 71 | 1013.0 |
| 20260506084145 | 57 | 248 | 5.2 | 5.2 | 0.00 | 0.04 | 0.00 | 71 | 1015.0 |
| 20260506083645 | 56 | 248 | 5.2 | 5.2 | 0.00 | 0.04 | 0.00 | 71 | 1015.0 |
| 20260506083145 | 56 | 248 | 5.2 | 5.2 | 0.00 | 0.04 | 0.00 | 71 | 1015.0 |
| 20260506082644 | 55 | 248 | 5.2 | 5.2 | 0.00 | 0.04 | 0.00 | 70 | 1015.0 |
| 20260506082144 | 55 | 248 | 5.2 | 5.2 | 0.00 | 0.04 | 0.00 | 71 | 1015.0 |
| 20260506081644 | 55 | 248 | 5.2 | 5.2 | 0.00 | 0.04 | 0.00 | 71 | 1015.0 |
| 20260506081144 | 55 | 248 | 5.2 | 5.2 | 0.00 | 0.04 | 0.00 | 71 | 1015.0 |
| 20260506080644 | 55 | 248 | 5.2 | 5.2 | 0.00 | 0.04 | 0.00 | 71 | 1015.0 |
| 20260506080144 | 55 | 248 | 5.2 | 5.2 | 0.00 | 0.04 | 0.00 | 71 | 1015.0 |
| 20260506073145 | 53 | 248 | 5.2 | 5.2 | 0.00 | 0.04 | 0.00 | 71 | 1016.0 |
| 20260506072645 | 53 | 248 | 5.2 | 5.2 | 0.00 | 0.04 | 0.00 | 71 | 1016.0 |
| 20260506072145 | 52 | 248 | 5.2 | 5.2 | 0.00 | 0.04 | 0.00 | 71 | 1016.0 |
| 20260506071645 | 52 | 248 | 5.2 | 5.2 | 0.00 | 0.04 | 0.00 | 71 | 1016.0 |
| 20260506071145 | 52 | 248 | 5.2 | 5.2 | 0.00 | 0.04 | 0.00 | 71 | 1016.0 |
| 20260506070644 | 51 | 248 | 5.2 | 5.2 | 0.00 | 0.04 | 0.00 | 71 | 1016.0 |
| 20260506070144 | 51 | 248 | 5.2 | 5.2 | 0.00 | 0.04 | 0.00 | 71 | 1016.0 |
| 20260506062145 | 50 | 248 | 5.2 | 5.2 | 0.00 | 0.04 | 0.00 | 71 | 1017.0 |
| 20260506061645 | 50 | 248 | 5.2 | 5.2 | 0.00 | 0.04 | 0.00 | 71 | 1017.0 |
| 20260506061145 | 50 | 248 | 5.2 | 5.2 | 0.00 | 0.04 | 0.00 | 71 | 1017.0 |
| 20260506060645 | 49 | 248 | 5.2 | 5.2 | 0.00 | 0.04 | 0.00 | 71 | 1017.0 |
| 20260506060145 | 49 | 248 | 5.2 | 5.2 | 0.00 | 0.04 | 0.00 | 71 | 1017.0 |
| 20260506051144 | 48 | 248 | 5.2 | 5.2 | 0.00 | 0.04 | 0.00 | 70 | 1017.0 |
| 20260506050644 | 48 | 248 | 5.2 | 5.2 | 0.00 | 0.04 | 0.00 | 70 | 1017.0 |
| 20260506050144 | 48 | 248 | 5.2 | 5.2 | 0.00 | 0.04 | 0.00 | 70 | 1017.0 |
| 20260506044644 | 48 | 248 | 5.2 | 5.2 | 0.00 | 0.04 | 0.00 | 70 | 1017.0 |
| 20260506044146 | 48 | 248 | 5.2 | 5.2 | 0.00 | 0.04 | 0.00 | 70 | 1017.0 |
| 20260506043645 | 48 | 248 | 5.2 | 5.2 | 0.00 | 0.04 | 0.00 | 70 | 1017.0 |
| 20260506043145 | 49 | 248 | 5.2 | 5.2 | 0.00 | 0.04 | 0.00 | 70 | 1017.0 |
| 20260506042645 | 49 | 248 | 5.2 | 5.2 | 0.00 | 0.04 | 0.00 | 70 | 1017.0 |
| 20260506042145 | 49 | 248 | 5.2 | 5.2 | 0.00 | 0.04 | 0.00 | 70 | 1017.0 |
| 20260506041645 | 49 | 248 | 5.2 | 5.2 | 0.00 | 0.04 | 0.00 | 70 | 1017.0 |
| 20260506041145 | 49 | 248 | 5.2 | 5.2 | 0.00 | 0.04 | 0.00 | 70 | 1017.0 |
| 20260506040645 | 49 | 248 | 5.2 | 5.2 | 0.00 | 0.04 | 0.00 | 70 | 1017.0 |
| 20260506040145 | 49 | 248 | 5.2 | 5.2 | 0.00 | 0.04 | 0.00 | 70 | 1017.0 |
| 20260506035645 | 49 | 248 | 5.2 | 5.2 | 0.00 | 0.04 | 0.00 | 70 | 1017.0 |
| 20260506035144 | 49 | 248 | 5.2 | 5.2 | 0.00 | 0.04 | 0.00 | 70 | 1017.0 |
| 20260506034644 | 49 | 248 | 5.2 | 5.2 | 0.00 | 0.04 | 0.00 | 70 | 1017.0 |
| 20260506034144 | 49 | 248 | 5.2 | 5.2 | 0.00 | 0.04 | 0.00 | 70 | 1017.0 |
| 20260506033644 | 49 | 248 | 5.2 | 5.2 | 0.00 | 0.04 | 0.00 | 70 | 1017.0 |
| 20260506033144 | 49 | 248 | 5.2 | 5.2 | 0.00 | 0.04 | 0.00 | 70 | 1017.0 |
| 20260506032644 | 49 | 248 | 5.2 | 5.2 | 0.00 | 0.04 | 0.00 | 70 | 1016.0 |
| 20260506032146 | 49 | 248 | 5.2 | 5.2 | 0.00 | 0.04 | 0.00 | 70 | 1016.0 |
| 20260506031646 | 49 | 248 | 5.2 | 5.2 | 0.00 | 0.04 | 0.00 | 70 | 1016.0 |
| 20260506031145 | 49 | 248 | 5.2 | 5.2 | 0.00 | 0.04 | 0.00 | 70 | 1017.0 |
| 20260506030645 | 49 | 248 | 5.2 | 5.2 | 0.00 | 0.04 | 0.00 | 70 | 1017.0 |
| 20260506030145 | 49 | 248 | 5.2 | 5.2 | 0.00 | 0.04 | 0.00 | 70 | 1017.0 |
| 20260506025645 | 49 | 248 | 5.2 | 5.2 | 0.00 | 0.04 | 0.00 | 70 | 1017.0 |
| 20260506025145 | 49 | 248 | 5.2 | 5.2 | 0.00 | 0.04 | 0.00 | 70 | 1017.0 |
| 20260506024645 | 49 | 248 | 5.2 | 5.2 | 0.00 | 0.04 | 0.00 | 70 | 1017.0 |
| 20260506024145 | 49 | 248 | 5.2 | 5.2 | 0.00 | 0.04 | 0.00 | 70 | 1016.0 |
| 20260506023644 | 49 | 248 | 5.2 | 5.2 | 0.00 | 0.04 | 0.00 | 70 | 1016.0 |
| 20260506023144 | 49 | 248 | 5.2 | 5.2 | 0.00 | 0.04 | 0.00 | 70 | 1016.0 |
| 20260506022644 | 49 | 248 | 5.2 | 5.2 | 0.00 | 0.04 | 0.00 | 70 | 1017.0 |
| 20260506022144 | 50 | 248 | 5.2 | 5.2 | 0.00 | 0.04 | 0.00 | 70 | 1017.0 |
| 20260506021646 | 50 | 248 | 5.2 | 5.2 | 0.00 | 0.04 | 0.00 | 70 | 1017.0 |
| 20260506021146 | 50 | 248 | 5.2 | 5.2 | 0.00 | 0.04 | 0.00 | 70 | 1016.0 |
| 20260506020645 | 50 | 248 | 5.2 | 5.2 | 0.00 | 0.04 | 0.00 | 70 | 1016.0 |
| 20260506020145 | 50 | 248 | 5.2 | 5.2 | 0.00 | 0.04 | 0.00 | 70 | 1016.0 |
| 20260506015645 | 50 | 248 | 5.2 | 5.2 | 0.00 | 0.04 | 0.00 | 70 | 1016.0 |
| 20260506015145 | 50 | 248 | 5.2 | 5.2 | 0.00 | 0.04 | 0.00 | 70 | 1016.0 |
| 20260506014645 | 49 | 248 | 5.2 | 5.2 | 0.00 | 0.04 | 0.00 | 70 | 1016.0 |
| 20260506014144 | 49 | 248 | 5.2 | 5.2 | 0.00 | 0.04 | 0.00 | 70 | 1017.0 |
| 20260506013644 | 49 | 248 | 5.2 | 5.2 | 0.00 | 0.04 | 0.00 | 70 | 1017.0 |
| 20260506013144 | 49 | 248 | 5.2 | 5.2 | 0.00 | 0.04 | 0.00 | 70 | 1017.0 |
| 20260506012644 | 49 | 248 | 5.2 | 5.2 | 0.00 | 0.04 | 0.00 | 70 | 1017.0 |
| 20260506012144 | 49 | 248 | 5.2 | 5.2 | 0.00 | 0.04 | 0.00 | 70 | 1017.0 |
| 20260506011646 | 49 | 248 | 5.2 | 5.2 | 0.00 | 0.04 | 0.00 | 70 | 1017.0 |
| 20260506011146 | 49 | 248 | 5.2 | 5.2 | 0.00 | 0.04 | 0.00 | 70 | 1017.0 |
| 20260506010645 | 49 | 248 | 5.2 | 5.2 | 0.00 | 0.04 | 0.00 | 70 | 1017.0 |
| 20260506010145 | 49 | 248 | 5.2 | 5.2 | 0.00 | 0.04 | 0.00 | 69 | 1017.0 |
| 20260506005645 | 49 | 248 | 5.2 | 5.2 | 0.00 | 0.04 | 0.00 | 69 | 1017.0 |
| 20260506005145 | 49 | 248 | 5.2 | 5.2 | 0.00 | 0.04 | 0.00 | 70 | 1017.0 |
| 20260506004645 | 49 | 248 | 5.2 | 5.2 | 0.00 | 0.04 | 0.00 | 70 | 1017.0 |
| 20260506004144 | 49 | 248 | 5.2 | 5.2 | 0.00 | 0.04 | 0.00 | 70 | 1017.0 |
| 20260506003644 | 49 | 248 | 5.2 | 5.2 | 0.00 | 0.04 | 0.00 | 70 | 1017.0 |
| 20260506003144 | 49 | 248 | 5.2 | 5.2 | 0.00 | 0.04 | 0.00 | 70 | 1017.0 |
| 20260506002644 | 50 | 248 | 5.2 | 5.2 | 0.00 | 0.04 | 0.00 | 70 | 1017.0 |
| 20260506002144 | 50 | 248 | 5.2 | 5.2 | 0.00 | 0.04 | 0.00 | 70 | 1017.0 |
| 20260506001646 | 50 | 248 | 5.2 | 5.2 | 0.00 | 0.04 | 0.00 | 70 | 1017.0 |
| 20260506001145 | 50 | 248 | 5.2 | 5.2 | 0.00 | 0.04 | 0.00 | 70 | 1017.0 |
| 20260506000645 | 50 | 248 | 5.2 | 5.2 | 0.00 | 0.04 | 0.00 | 70 | 1017.0 |
| 20260506000145 | 50 | 248 | 5.2 | 5.2 | 0.00 | 0.04 | 0.00 | 70 | 1017.0 |
| 20260505235645 | 50 | 248 | 5.2 | 5.2 | 0.00 | 0.04 | 0.00 | 70 | 1017.0 |
| 20260505235145 | 50 | 248 | 5.2 | 5.2 | 0.00 | 0.04 | 0.00 | 70 | 1017.0 |
| 20260505234645 | 50 | 248 | 5.2 | 5.2 | 0.00 | 0.04 | 0.00 | 70 | 1017.0 |
| 20260505234145 | 50 | 248 | 5.2 | 5.2 | 0.00 | 0.04 | 0.00 | 70 | 1016.0 |
| 20260505233645 | 50 | 248 | 5.2 | 5.2 | 0.00 | 0.04 | 0.00 | 69 | 1016.0 |
| 20260505233144 | 50 | 248 | 5.2 | 5.2 | 0.00 | 0.04 | 0.00 | 69 | 1016.0 |
| 20260505232644 | 50 | 248 | 5.2 | 5.2 | 0.00 | 0.04 | 0.00 | 69 | 1017.0 |
| 20260505232144 | 50 | 248 | 5.2 | 5.2 | 0.00 | 0.04 | 0.00 | 69 | 1017.0 |
| 20260505231644 | 50 | 248 | 5.2 | 5.2 | 0.00 | 0.04 | 0.00 | 69 | 1017.0 |
| 20260505231144 | 50 | 248 | 5.2 | 5.2 | 0.00 | 0.04 | 0.00 | 69 | 1017.0 |
| 20260505230644 | 50 | 248 | 5.2 | 5.2 | 0.00 | 0.04 | 0.00 | 69 | 1017.0 |
| 20260505230146 | 50 | 248 | 5.2 | 5.2 | 0.00 | 0.04 | 0.00 | 69 | 1017.0 |
| 20260505225645 | 50 | 248 | 5.2 | 5.2 | 0.00 | 0.04 | 0.00 | 69 | 1017.0 |
| 20260505225145 | 50 | 248 | 5.2 | 5.2 | 0.00 | 0.04 | 0.00 | 69 | 1017.0 |
| 20260505224645 | 50 | 248 | 5.2 | 5.2 | 0.00 | 0.04 | 0.00 | 69 | 1017.0 |
| 20260505224145 | 50 | 248 | 5.2 | 5.2 | 0.00 | 0.04 | 0.00 | 69 | 1017.0 |
| 20260505223645 | 50 | 248 | 5.2 | 5.2 | 0.00 | 0.04 | 0.00 | 69 | 1017.0 |
| 20260505223148 | 51 | 248 | 5.2 | 5.2 | 0.00 | 0.04 | 0.00 | 69 | 1017.0 |
| 20260505222645 | 51 | 248 | 5.2 | 5.2 | 0.00 | 0.04 | 0.00 | 69 | 1016.0 |
| 20260505222145 | 51 | 248 | 5.2 | 5.2 | 0.00 | 0.04 | 0.00 | 69 | 1016.0 |
| 20260505221645 | 51 | 248 | 5.2 | 5.2 | 0.00 | 0.04 | 0.00 | 69 | 1016.0 |
| 20260505221144 | 51 | 248 | 5.2 | 5.2 | 0.00 | 0.04 | 0.00 | 69 | 1017.0 |
| 20260505220644 | 51 | 248 | 5.2 | 5.2 | 0.00 | 0.04 | 0.00 | 69 | 1017.0 |
| 20260505220144 | 51 | 248 | 5.2 | 5.2 | 0.00 | 0.04 | 0.00 | 69 | 1017.0 |
| 20260505215644 | 51 | 248 | 5.2 | 5.2 | 0.00 | 0.04 | 0.04 | 69 | 1017.0 |
| 20260505215144 | 51 | 248 | 5.2 | 5.2 | 0.00 | 0.04 | 0.04 | 69 | 1017.0 |
| 20260505214646 | 51 | 248 | 5.2 | 5.2 | 0.00 | 0.04 | 0.04 | 69 | 1017.0 |
| 20260505214146 | 51 | 248 | 5.2 | 5.2 | 0.00 | 0.04 | 0.04 | 69 | 1017.0 |
| 20260505213645 | 52 | 248 | 5.2 | 5.2 | 0.00 | 0.04 | 0.04 | 69 | 1017.0 |
| 20260505213145 | 52 | 248 | 5.2 | 5.2 | 0.00 | 0.04 | 0.04 | 69 | 1017.0 |
| 20260505212645 | 52 | 248 | 5.2 | 5.2 | 0.00 | 0.04 | 0.04 | 68 | 1017.0 |
| 20260505212145 | 52 | 248 | 5.2 | 5.2 | 0.00 | 0.04 | 0.04 | 69 | 1017.0 |
| 20260505211645 | 52 | 248 | 5.2 | 5.2 | 0.00 | 0.04 | 0.04 | 69 | 1017.0 |
| 20260505211145 | 52 | 248 | 5.2 | 5.2 | 0.00 | 0.04 | 0.04 | 69 | 1017.0 |
| 20260505210645 | 52 | 248 | 5.2 | 5.2 | 0.00 | 0.04 | 0.04 | 69 | 1017.0 |
| 20260505210145 | 52 | 248 | 5.2 | 5.2 | 0.00 | 0.04 | 0.04 | 69 | 1017.0 |
| 20260505205645 | 53 | 248 | 5.2 | 5.2 | 0.00 | 0.04 | 0.04 | 69 | 1017.0 |
| 20260505205145 | 53 | 248 | 5.2 | 5.2 | 0.00 | 0.04 | 0.04 | 69 | 1017.0 |
| 20260505204645 | 53 | 248 | 5.2 | 5.2 | 0.00 | 0.04 | 0.04 | 69 | 1017.0 |
| 20260505204144 | 53 | 248 | 5.2 | 5.2 | 0.00 | 0.04 | 0.04 | 69 | 1017.0 |
| 20260505203644 | 53 | 248 | 5.2 | 5.2 | 0.00 | 0.04 | 0.04 | 69 | 1017.0 |
| 20260505203144 | 53 | 248 | 5.2 | 5.2 | 0.00 | 0.04 | 0.04 | 69 | 1017.0 |
| 20260505202644 | 53 | 248 | 5.2 | 5.2 | 0.00 | 0.04 | 0.04 | 69 | 1017.0 |
| 20260505202146 | 53 | 248 | 5.2 | 5.2 | 0.00 | 0.04 | 0.04 | 69 | 1017.0 |
| 20260505201646 | 53 | 248 | 5.2 | 5.2 | 0.00 | 0.04 | 0.04 | 69 | 1017.0 |
| 20260505201146 | 53 | 248 | 5.2 | 5.2 | 0.00 | 0.04 | 0.04 | 69 | 1016.0 |
| 20260505200646 | 53 | 248 | 5.2 | 5.2 | 0.00 | 0.04 | 0.04 | 69 | 1016.0 |
| 20260505200145 | 54 | 248 | 5.2 | 5.2 | 0.00 | 0.04 | 0.04 | 68 | 1016.0 |
| 20260505195645 | 54 | 248 | 5.2 | 5.2 | 0.00 | 0.04 | 0.04 | 68 | 1016.0 |
| 20260505195145 | 54 | 248 | 5.2 | 5.2 | 0.00 | 0.04 | 0.04 | 68 | 1016.0 |
| 20260505194645 | 54 | 248 | 5.2 | 5.2 | 0.00 | 0.04 | 0.04 | 68 | 1016.0 |
| 20260505194145 | 54 | 248 | 5.2 | 5.2 | 0.00 | 0.04 | 0.04 | 68 | 1016.0 |
| 20260505193645 | 55 | 248 | 5.2 | 5.2 | 0.00 | 0.04 | 0.04 | 68 | 1016.0 |
| 20260505193145 | 55 | 248 | 5.2 | 5.2 | 0.00 | 0.04 | 0.04 | 68 | 1016.0 |
| 20260505192645 | 55 | 248 | 5.2 | 5.2 | 0.00 | 0.04 | 0.04 | 68 | 1016.0 |
| 20260505192145 | 55 | 248 | 5.2 | 5.2 | 0.00 | 0.04 | 0.04 | 68 | 1016.0 |
| 20260505191644 | 55 | 248 | 5.2 | 5.2 | 0.00 | 0.04 | 0.04 | 68 | 1016.0 |
| 20260505191144 | 55 | 248 | 5.2 | 5.2 | 0.00 | 0.04 | 0.04 | 68 | 1015.0 |
| 20260505190644 | 56 | 248 | 5.2 | 5.2 | 0.00 | 0.04 | 0.04 | 68 | 1015.0 |
| 20260505190144 | 56 | 248 | 5.2 | 5.2 | 0.00 | 0.04 | 0.04 | 68 | 1015.0 |
| 20260505185646 | 56 | 248 | 5.2 | 5.2 | 0.00 | 0.04 | 0.04 | 68 | 1014.0 |
| 20260505185146 | 56 | 248 | 5.2 | 5.2 | 0.00 | 0.04 | 0.04 | 68 | 1014.0 |
| 20260505184645 | 56 | 248 | 5.2 | 5.2 | 0.00 | 0.04 | 0.04 | 68 | 1014.0 |
| 20260505184145 | 57 | 248 | 5.2 | 5.2 | 0.00 | 0.04 | 0.04 | 68 | 1015.0 |
| 20260505183645 | 57 | 248 | 5.2 | 5.2 | 0.00 | 0.04 | 0.04 | 68 | 1015.0 |
| 20260505183145 | 57 | 248 | 5.2 | 5.2 | 0.00 | 0.04 | 0.04 | 68 | 1015.0 |
| 20260505182645 | 57 | 248 | 5.2 | 5.2 | 0.00 | 0.04 | 0.04 | 68 | 1015.0 |
| 20260505182145 | 57 | 248 | 5.2 | 5.2 | 0.00 | 0.04 | 0.04 | 68 | 1015.0 |
| 20260505181644 | 57 | 248 | 5.2 | 5.2 | 0.00 | 0.04 | 0.04 | 68 | 1015.0 |
| 20260505181144 | 57 | 248 | 5.2 | 5.2 | 0.00 | 0.04 | 0.04 | 68 | 1016.0 |
| 20260505180644 | 58 | 248 | 5.2 | 5.2 | 0.00 | 0.04 | 0.04 | 68 | 1016.0 |
| 20260505180144 | 58 | 248 | 5.2 | 5.2 | 0.00 | 0.04 | 0.04 | 68 | 1016.0 |
| 20260505175646 | 58 | 248 | 5.2 | 5.2 | 0.00 | 0.09 | 0.04 | 68 | 1015.0 |
| 20260505175146 | 58 | 248 | 5.2 | 5.2 | 0.00 | 0.09 | 0.04 | 68 | 1015.0 |
| 20260505174646 | 58 | 248 | 5.2 | 5.2 | 0.00 | 0.09 | 0.04 | 68 | 1015.0 |
| 20260505174145 | 58 | 248 | 5.2 | 5.2 | 0.00 | 0.09 | 0.04 | 68 | 1015.0 |
| 20260505173645 | 58 | 248 | 5.2 | 5.2 | 0.00 | 0.09 | 0.04 | 69 | 1015.0 |
| 20260505173145 | 58 | 248 | 5.2 | 5.2 | 0.00 | 0.09 | 0.04 | 69 | 1015.0 |
| 20260505172645 | 58 | 248 | 5.2 | 5.2 | 0.00 | 0.13 | 0.04 | 69 | 1015.0 |
| 20260505172145 | 58 | 248 | 5.2 | 5.2 | 0.00 | 0.13 | 0.04 | 69 | 1015.0 |
| 20260505171645 | 58 | 248 | 5.2 | 5.2 | 0.00 | 0.13 | 0.04 | 69 | 1015.0 |
| 20260505171144 | 58 | 248 | 5.2 | 5.2 | 0.00 | 0.13 | 0.04 | 69 | 1015.0 |
| 20260505170644 | 58 | 248 | 5.2 | 5.2 | 0.00 | 0.17 | 0.04 | 69 | 1015.0 |
| 20260505170144 | 58 | 248 | 5.2 | 5.2 | 0.00 | 0.17 | 0.04 | 69 | 1015.0 |
| 20260505165644 | 58 | 248 | 5.2 | 5.2 | 0.00 | 0.17 | 0.04 | 69 | 1015.0 |
| 20260505165144 | 58 | 248 | 5.2 | 5.2 | 0.00 | 0.17 | 0.04 | 69 | 1015.0 |
| 20260505164644 | 58 | 248 | 5.2 | 5.2 | 0.00 | 0.21 | 0.04 | 69 | 1015.0 |
| 20260505164146 | 58 | 248 | 5.2 | 5.2 | 0.00 | 0.25 | 0.04 | 69 | 1015.0 |
| 20260505163645 | 58 | 248 | 5.2 | 5.2 | 0.00 | 0.25 | 0.04 | 69 | 1015.0 |
| 20260505163145 | 58 | 248 | 5.2 | 5.2 | 0.00 | 0.25 | 0.04 | 69 | 1015.0 |
| 20260505162645 | 58 | 248 | 5.2 | 5.2 | 0.00 | 0.25 | 0.04 | 69 | 1015.0 |
| 20260505162145 | 58 | 248 | 5.2 | 5.2 | 0.00 | 0.25 | 0.04 | 69 | 1015.0 |
| 20260505161645 | 58 | 248 | 5.2 | 5.2 | 0.00 | 0.25 | 0.04 | 69 | 1015.0 |
| 20260505161145 | 58 | 248 | 5.2 | 5.2 | 0.00 | 0.25 | 0.04 | 69 | 1015.0 |
| 20260505160645 | 58 | 248 | 5.2 | 5.2 | 0.00 | 0.25 | 0.04 | 70 | 1015.0 |
| 20260505160145 | 58 | 248 | 5.2 | 5.2 | 0.04 | 0.25 | 0.04 | 70 | 1015.0 |
| 20260505153144 | 56 | 248 | 5.2 | 5.2 | 0.04 | 0.25 | 0.04 | 69 | 1015.0 |
| 20260505152644 | 56 | 248 | 5.2 | 5.2 | 0.04 | 0.25 | 0.04 | 69 | 1014.0 |
| 20260505152144 | 56 | 248 | 5.2 | 5.2 | 0.04 | 0.25 | 0.04 | 69 | 1014.0 |
| 20260505151644 | 56 | 248 | 5.2 | 5.2 | 0.04 | 0.25 | 0.04 | 69 | 1014.0 |
| 20260505151144 | 56 | 248 | 5.2 | 5.2 | 0.04 | 0.25 | 0.04 | 69 | 1015.0 |
| 20260505150646 | 56 | 248 | 5.2 | 5.2 | 0.04 | 0.25 | 0.04 | 69 | 1015.0 |
| 20260505150146 | 56 | 248 | 5.2 | 5.2 | 0.00 | 0.21 | 0.00 | 69 | 1015.0 |
| 20260505140644 | 58 | 248 | 5.2 | 5.2 | 0.00 | 0.21 | 0.00 | 68 | 1015.0 |
| 20260505140144 | 58 | 248 | 5.2 | 5.2 | 0.00 | 0.21 | 0.00 | 68 | 1015.0 |
| 20260505130145 | 62 | 248 | 5.2 | 5.2 | 0.00 | 0.25 | 0.00 | 68 | 1012.0 |
| 20260505124645 | 63 | 284 | 2.6 | 5.2 | 0.00 | 0.30 | 0.00 | 69 | 1013.0 |